Time,TemperatureF,DewpointF,PressureIn,WindDirection,WindDirectionDegrees,WindSpeedMPH,WindSpeedGustMPH,Humidity,HourlyPrecipIn,Conditions,Clouds,dailyrainin,SolarRadiationWatts/m^2,SoftwareType,DateUTC
2013-03-31 00:03:00,34.0,-99.9,-100.00,South,176,11.0,13.0,98,0.00,,,0.00,0.000000,,2013-03-31 04:03:00,
2013-03-31 00:13:00,34.0,34.0,-100.00,South,176,11.0,13.0,98,0.00,,,0.00,0.000000,,2013-03-31 04:13:00,
2013-03-31 00:43:00,36.0,35.0,-100.00,South,179,10.0,17.0,96,0.00,,,0.00,0.000000,,2013-03-31 04:43:00,
2013-03-31 00:53:00,36.0,35.0,-100.00,South,179,10.0,17.0,96,0.00,,,0.00,0.000000,,2013-03-31 04:53:00,
2013-03-31 01:02:00,36.0,35.0,-100.00,South,179,10.0,17.0,96,0.00,,,0.00,0.000000,,2013-03-31 05:02:00,
2013-03-31 01:13:00,36.0,35.0,-100.00,South,179,10.0,17.0,96,0.00,,,0.00,0.000000,,2013-03-31 05:13:00,
2013-03-31 01:42:00,36.0,35.0,-100.00,SSW,193,5.0,13.0,98,0.00,,,0.00,0.000000,,2013-03-31 05:42:00,
2013-03-31 01:53:00,36.0,35.0,-100.00,SSW,193,5.0,13.0,98,0.00,,,0.00,0.000000,,2013-03-31 05:53:00,
2013-03-31 02:02:00,36.0,35.0,-100.00,SSW,193,5.0,13.0,98,0.00,,,0.00,0.000000,,2013-03-31 06:02:00,
2013-03-31 02:12:00,36.0,35.0,-100.00,SSW,193,5.0,13.0,98,0.00,,,0.00,0.000000,,2013-03-31 06:12:00,
2013-03-31 02:42:00,35.0,35.0,-100.00,SSW,204,3.0,7.0,99,0.00,,,0.00,0.000000,,2013-03-31 06:42:00,
2013-03-31 02:53:00,35.0,35.0,-100.00,SSW,204,3.0,7.0,99,0.00,,,0.00,0.000000,,2013-03-31 06:53:00,
2013-03-31 03:02:00,35.0,35.0,-100.00,SSW,204,3.0,7.0,99,0.00,,,0.00,0.000000,,2013-03-31 07:02:00,
2013-03-31 03:12:00,35.0,35.0,-100.00,SSW,204,3.0,7.0,99,0.00,,,0.00,0.000000,,2013-03-31 07:12:00,
2013-03-31 03:43:00,36.0,36.0,-100.00,SW,233,4.0,6.0,99,0.00,,,0.00,0.000000,,2013-03-31 07:43:00,
2013-03-31 03:53:00,36.0,36.0,-100.00,SW,233,4.0,6.0,99,0.00,,,0.00,0.000000,,2013-03-31 07:53:00,
2013-03-31 04:02:00,36.0,36.0,-100.00,SW,233,4.0,6.0,99,0.00,,,0.00,0.000000,,2013-03-31 08:02:00,
2013-03-31 04:12:00,36.0,36.0,-100.00,SW,233,4.0,6.0,99,0.00,,,0.00,0.000000,,2013-03-31 08:12:00,
2013-03-31 04:42:00,35.0,35.0,-100.00,SSW,212,4.0,6.0,99,0.00,,,0.00,0.000000,,2013-03-31 08:42:00,
2013-03-31 04:52:00,35.0,35.0,-100.00,SSW,212,4.0,6.0,99,0.00,,,0.00,0.000000,,2013-03-31 08:52:00,
2013-03-31 05:02:00,35.0,35.0,-100.00,SSW,212,4.0,6.0,99,0.00,,,0.00,0.000000,,2013-03-31 09:02:00,
2013-03-31 05:12:00,35.0,35.0,-100.00,SSW,212,4.0,6.0,99,0.00,,,0.00,0.000000,,2013-03-31 09:12:00,
2013-03-31 05:43:00,34.0,34.0,-100.00,SSW,202,2.0,4.0,99,0.00,,,0.00,0.000000,,2013-03-31 09:43:00,
2013-03-31 05:53:00,34.0,34.0,-100.00,SSW,202,2.0,4.0,99,0.00,,,0.00,0.000000,,2013-03-31 09:53:00,
2013-03-31 06:03:00,34.0,34.0,-100.00,SSW,202,2.0,4.0,99,0.00,,,0.00,0.000000,,2013-03-31 10:03:00,
2013-03-31 06:13:00,34.0,34.0,-100.00,SSW,202,2.0,4.0,99,0.00,,,0.00,0.000000,,2013-03-31 10:13:00,
2013-03-31 06:42:00,35.0,35.0,-100.00,West,264,2.0,4.0,99,0.00,,,0.00,0.000000,,2013-03-31 10:42:00,
2013-03-31 06:53:00,35.0,35.0,-100.00,West,264,2.0,4.0,99,0.00,,,0.00,0.000000,,2013-03-31 10:53:00,
2013-03-31 07:03:00,35.0,35.0,-100.00,West,264,2.0,4.0,99,0.00,,,0.00,0.000000,,2013-03-31 11:03:00,
2013-03-31 07:12:00,35.0,35.0,-100.00,West,264,2.0,4.0,99,0.00,,,0.00,0.000000,,2013-03-31 11:12:00,
2013-03-31 07:43:00,34.0,34.0,-100.00,SSE,157,2.0,4.0,99,0.00,,,0.00,0.000000,,2013-03-31 11:43:00,
2013-03-31 07:53:00,34.0,34.0,-100.00,SSE,157,2.0,4.0,99,0.00,,,0.00,0.000000,,2013-03-31 11:53:00,
2013-03-31 08:03:00,34.0,34.0,-100.00,SSE,157,2.0,4.0,99,0.00,,,0.00,0.000000,,2013-03-31 12:03:00,
2013-03-31 08:12:00,34.0,34.0,-100.00,SSE,157,2.0,4.0,99,0.00,,,0.00,0.000000,,2013-03-31 12:12:00,
2013-03-31 08:42:00,34.0,34.0,-100.00,South,177,5.0,6.0,99,0.00,,,0.00,24.000000,,2013-03-31 12:42:00,
2013-03-31 08:53:00,34.0,34.0,-100.00,South,177,5.0,6.0,99,0.00,,,0.00,24.000000,,2013-03-31 12:53:00,
2013-03-31 09:02:00,34.0,34.0,-100.00,South,177,5.0,6.0,99,0.00,,,0.00,24.000000,,2013-03-31 13:02:00,
2013-03-31 09:12:00,34.0,34.0,-100.00,South,177,5.0,6.0,99,0.00,,,0.00,24.000000,,2013-03-31 13:12:00,
2013-03-31 10:43:00,36.0,35.0,-100.00,SW,215,5.0,10.0,97,-99.99,,,0.00,214.000000,,2013-03-31 14:43:00,
2013-03-31 10:53:00,36.0,35.0,-100.00,SW,215,5.0,10.0,97,-99.99,,,0.00,214.000000,,2013-03-31 14:53:00,
2013-03-31 11:03:00,36.0,35.0,-100.00,SW,215,5.0,10.0,97,-99.99,,,0.00,214.000000,,2013-03-31 15:03:00,
2013-03-31 11:13:00,36.0,35.0,-100.00,SW,215,5.0,10.0,97,-99.99,,,0.00,214.000000,,2013-03-31 15:13:00,
2013-03-31 11:44:00,35.0,33.0,-100.00,SSW,206,9.0,14.0,93,0.00,,,0.00,259.000000,,2013-03-31 15:44:00,
2013-03-31 11:54:00,35.0,33.0,-100.00,SSW,206,9.0,14.0,93,0.00,,,0.00,259.000000,,2013-03-31 15:54:00,
2013-03-31 12:03:00,35.0,33.0,-100.00,SSW,206,9.0,14.0,93,0.00,,,0.00,259.000000,,2013-03-31 16:03:00,
2013-03-31 12:13:00,35.0,33.0,-100.00,SSW,206,9.0,14.0,93,0.00,,,0.00,259.000000,,2013-03-31 16:13:00,
2013-03-31 12:43:00,35.0,33.0,-100.00,SW,214,11.0,16.0,91,0.00,,,0.00,333.000000,,2013-03-31 16:43:00,
2013-03-31 12:54:00,35.0,33.0,-100.00,SW,214,11.0,16.0,91,0.00,,,0.00,333.000000,,2013-03-31 16:54:00,
2013-03-31 13:03:00,35.0,33.0,-100.00,SW,214,11.0,16.0,91,0.00,,,0.00,333.000000,,2013-03-31 17:03:00,
2013-03-31 13:13:00,35.0,33.0,-100.00,SW,214,11.0,16.0,91,0.00,,,0.00,333.000000,,2013-03-31 17:13:00,
2013-03-31 13:43:00,36.0,33.0,-100.00,SW,222,10.0,17.0,90,0.00,,,0.00,344.000000,,2013-03-31 17:43:00,
2013-03-31 13:52:00,36.0,33.0,-100.00,SW,222,10.0,17.0,90,0.00,,,0.00,344.000000,,2013-03-31 17:52:00,
2013-03-31 14:03:00,36.0,33.0,-100.00,SW,222,10.0,17.0,90,0.00,,,0.00,344.000000,,2013-03-31 18:03:00,
2013-03-31 14:13:00,36.0,33.0,-100.00,SW,222,10.0,17.0,90,0.00,,,0.00,344.000000,,2013-03-31 18:13:00,
2013-03-31 14:43:00,37.0,34.0,-100.00,WSW,243,11.0,16.0,88,0.00,,,0.00,348.000000,,2013-03-31 18:43:00,
2013-03-31 14:53:00,37.0,34.0,-100.00,WSW,243,11.0,16.0,88,0.00,,,0.00,348.000000,,2013-03-31 18:53:00,
2013-03-31 15:03:00,37.0,34.0,-100.00,WSW,243,11.0,16.0,88,0.00,,,0.00,348.000000,,2013-03-31 19:03:00,
2013-03-31 15:12:00,37.0,34.0,-100.00,WSW,243,11.0,16.0,88,0.00,,,0.00,348.000000,,2013-03-31 19:12:00,
2013-03-31 15:43:00,38.0,34.0,-100.00,WSW,240,7.0,16.0,85,0.00,,,0.00,263.000000,,2013-03-31 19:43:00,
2013-03-31 15:54:00,38.0,34.0,-100.00,WSW,240,7.0,16.0,85,0.00,,,0.00,263.000000,,2013-03-31 19:54:00,
2013-03-31 16:03:00,38.0,34.0,-100.00,WSW,240,7.0,16.0,85,0.00,,,0.00,263.000000,,2013-03-31 20:03:00,
2013-03-31 16:13:00,38.0,34.0,-100.00,WSW,240,7.0,16.0,85,0.00,,,0.00,263.000000,,2013-03-31 20:13:00,
2013-03-31 16:43:00,36.0,33.0,-100.00,SW,232,12.0,16.0,90,0.00,,,0.00,258.000000,,2013-03-31 20:43:00,
2013-03-31 16:53:00,36.0,33.0,-100.00,SW,232,12.0,16.0,90,0.00,,,0.00,258.000000,,2013-03-31 20:53:00,
2013-03-31 17:03:00,36.0,33.0,-100.00,SW,232,12.0,16.0,90,0.00,,,0.00,258.000000,,2013-03-31 21:03:00,
2013-03-31 17:13:00,36.0,33.0,-100.00,SW,232,12.0,16.0,90,0.00,,,0.00,258.000000,,2013-03-31 21:13:00,
2013-03-31 17:34:00,35.0,33.0,-100.00,NE,38,2.0,16.0,93,0.00,,,0.00,112.000000,,2013-03-31 21:34:00,
2013-03-31 17:44:00,35.0,33.0,-100.00,NE,38,2.0,16.0,93,0.00,,,0.00,112.000000,,2013-03-31 21:44:00,
2013-03-31 17:54:00,35.0,33.0,-100.00,NE,38,2.0,16.0,93,0.00,,,0.00,112.000000,,2013-03-31 21:54:00,
2013-03-31 18:04:00,35.0,33.0,-100.00,NE,38,2.0,16.0,93,0.00,,,0.00,112.000000,,2013-03-31 22:04:00,
2013-03-31 18:13:00,35.0,33.0,-100.00,NE,38,2.0,16.0,93,0.00,,,0.00,112.000000,,2013-03-31 22:13:00,
2013-03-31 18:43:00,33.0,32.0,-100.00,West,277,6.0,11.0,95,0.00,,,0.00,92.000000,,2013-03-31 22:43:00,
2013-03-31 18:53:00,33.0,32.0,-100.00,West,277,6.0,11.0,95,0.00,,,0.00,92.000000,,2013-03-31 22:53:00,
2013-03-31 19:03:00,33.0,32.0,-100.00,West,277,6.0,11.0,95,0.00,,,0.00,92.000000,,2013-03-31 23:03:00,
2013-03-31 19:13:00,33.0,32.0,-100.00,West,277,6.0,11.0,95,0.00,,,0.00,92.000000,,2013-03-31 23:13:00,
2013-03-31 19:43:00,34.0,29.0,-100.00,West,278,11.0,19.0,81,0.00,,,0.00,81.000000,,2013-03-31 23:43:00,
2013-03-31 19:54:00,34.0,29.0,-100.00,West,278,11.0,19.0,81,0.00,,,0.00,81.000000,,2013-03-31 23:54:00,
2013-03-31 20:03:00,34.0,29.0,-100.00,West,278,11.0,19.0,81,0.00,,,0.00,81.000000,,2013-04-01 00:03:00,
2013-03-31 20:13:00,34.0,29.0,-100.00,West,278,11.0,19.0,81,0.00,,,0.00,81.000000,,2013-04-01 00:13:00,
2013-03-31 20:43:00,31.0,23.0,-100.00,West,278,19.0,29.0,71,0.00,,,0.00,47.000000,,2013-04-01 00:43:00,
2013-03-31 20:53:00,31.0,23.0,-100.00,West,278,19.0,29.0,71,0.00,,,0.00,47.000000,,2013-04-01 00:53:00,
2013-03-31 21:03:00,31.0,23.0,-100.00,West,278,19.0,29.0,71,0.00,,,0.00,47.000000,,2013-04-01 01:03:00,
2013-03-31 21:13:00,31.0,23.0,-100.00,West,278,19.0,29.0,71,0.00,,,0.00,47.000000,,2013-04-01 01:13:00,
2013-03-31 21:43:00,28.0,19.0,-100.00,West,281,17.0,32.0,68,0.00,,,0.00,0.000000,,2013-04-01 01:43:00,
2013-03-31 21:53:00,28.0,19.0,-100.00,West,281,17.0,32.0,68,0.00,,,0.00,0.000000,,2013-04-01 01:53:00,
2013-03-31 22:03:00,28.0,19.0,-100.00,West,281,17.0,32.0,68,0.00,,,0.00,0.000000,,2013-04-01 02:03:00,
2013-03-31 22:13:00,28.0,19.0,-100.00,West,281,17.0,32.0,68,0.00,,,0.00,0.000000,,2013-04-01 02:13:00,
2013-03-31 22:43:00,26.0,18.0,-100.00,WNW,292,16.0,30.0,70,0.00,,,0.00,0.000000,,2013-04-01 02:43:00,
2013-03-31 22:53:00,26.0,18.0,-100.00,WNW,292,16.0,30.0,70,0.00,,,0.00,0.000000,,2013-04-01 02:53:00,
2013-03-31 23:03:00,26.0,18.0,-100.00,WNW,292,16.0,30.0,70,0.00,,,0.00,0.000000,,2013-04-01 03:03:00,
2013-03-31 23:12:00,26.0,18.0,-100.00,WNW,292,16.0,30.0,70,0.00,,,0.00,0.000000,,2013-04-01 03:12:00,
2013-03-31 23:14:00,25.0,17.0,-100.00,WNW,295,16.0,31.0,71,0.00,,,0.00,0.000000,,2013-04-01 03:14:00,
2013-03-31 23:43:00,25.0,17.0,-100.00,WNW,295,16.0,31.0,71,0.00,,,0.00,0.000000,,2013-04-01 03:43:00,
2013-03-31 23:53:00,25.0,17.0,-100.00,WNW,295,16.0,31.0,71,0.00,,,0.00,0.000000,,2013-04-01 03:53:00,